Weather History for KJAX - August, 2014

Change the Weather History Date:

Sunday, August 17, 2014

  Actual Average Record
Temperature  
Mean Temperature 83 °F 82 °F  
Max Temperature 93 °F 91 °F 99 °F (1954)
Min Temperature 73 °F 73 °F 67 °F (1993)
Degree Days  
Heating Degree Days 0 0  
Month to date heating degree days 0 0  
Since 1 June heating degree days 0 0  
Since 1 July heating degree days 0 0  
Cooling Degree Days 18 17  
Month to date cooling degree days 298 290  
Year to date cooling degree days 1750 1759  
Since 1 June cooling degree days 1266 1275  
Growing Degree Days 33 (Base 50)    
Moisture  
Dew Point 74 °F    
Average Humidity 75    
Maximum Humidity 100    
Minimum Humidity 49    
Precipitation  
Precipitation 0.25 in 0.20 in 1.40 in (1914)
Month to date precipitation 2.38 3.44  
Year to date precipitation 35.44 32.00  
Snow  
Snow 0.00 in 0.00 in 0.00 in (2002)
Month to date snowfall 0.0 0.0  
Since 1 June snowfall 0.0 0.0  
Since 1 July snowfall 0.0 0.0  
Snow Depth 0.00 in    
Sea Level Pressure  
Sea Level Pressure 30.04 in    
Wind  
Wind Speed 6 mph (SW)    
Max Wind Speed 29 mph    
Max Gust Speed 35 mph    
Visibility 8 miles    
Events Rain , Thunderstorm    
T = Trace of Precipitation, MM = Missing Value Source: NWS Daily Summary

Daily Weather History Graph

Daily Weather History Graph

Search for Another Location

Airport or City:

Trip Planner

Search our weather history database for the weather conditions in past years. The results will help you decide how hot, cold, wet, or windy it might be!

Date:

Astronomy

Aug. 17, 2014 Rise Set
Actual Time 6:54 AM EDT 8:06 PM EDT
Civil Twilight 6:29 AM EDT 8:31 PM EDT
Nautical Twilight 5:59 AM EDT 9:01 PM EDT
Astronomical Twilight 5:28 AM EDT 9:32 PM EDT
Moon 12:21 AM EDT (8/17) 2:06 PM EDT (8/17)
Length of Visible Light 14h 02m
Length of Day
13h 11m
Waning Gibbous, 48% of the Moon is Illuminated
Aug 17
Waning Gibbous
Aug 25
New
Sep 2
First Quarter
Sep 8
Full
Sep 15
Last Quarter

Hourly Weather History & Observations

Time (EDT) Temp. Heat Index Dew Point Humidity Pressure Visibility Wind Dir Wind Speed Gust Speed Precip Events Conditions
12:56 AM 77.0 °F - 73.9 °F 90% 30.04 in 9.0 mi SW 5.8 mph - N/A   Mostly Cloudy
1:56 AM 75.9 °F - 73.0 °F 91% 30.03 in 7.0 mi Calm Calm - N/A   Scattered Clouds
2:56 AM 73.9 °F - 72.0 °F 93% 30.03 in 7.0 mi Calm Calm - N/A   Clear
3:56 AM 73.0 °F - 72.0 °F 96% 30.03 in 6.0 mi SW 3.5 mph - N/A   Clear
4:56 AM 73.9 °F - 73.0 °F 97% 30.03 in 6.0 mi SW 3.5 mph - N/A   Clear
5:56 AM 73.9 °F - 73.0 °F 97% 30.05 in 5.0 mi WSW 4.6 mph - N/A   Clear
6:56 AM 73.0 °F - 72.0 °F 96% 30.07 in 4.0 mi West 4.6 mph - N/A   Partly Cloudy
7:56 AM 75.0 °F - 73.9 °F 96% 30.08 in 4.0 mi WSW 5.8 mph - N/A   Partly Cloudy
8:56 AM 79.0 °F - 75.0 °F 88% 30.09 in 7.0 mi West 6.9 mph - N/A   Clear
9:56 AM 82.9 °F 90.2 °F 75.0 °F 77% 30.09 in 10.0 mi West 11.5 mph - N/A   Partly Cloudy
10:56 AM 86.0 °F 95.1 °F 75.0 °F 70% 30.10 in 10.0 mi WNW 10.4 mph - N/A   Partly Cloudy
11:56 AM 89.6 °F 98.2 °F 73.4 °F 59% 30.08 in 10.0 mi West 11.5 mph - N/A   Scattered Clouds
12:56 PM 90.0 °F 96.9 °F 72.0 °F 55% 30.06 in 10.0 mi SW 9.2 mph - N/A   Scattered Clouds
1:56 PM 91.9 °F 100.7 °F 73.0 °F 54% 30.05 in 10.0 mi SSW 8.1 mph - N/A   Scattered Clouds
2:56 PM 91.9 °F 98.4 °F 71.1 °F 50% 30.03 in 10.0 mi West 10.4 mph - N/A   Scattered Clouds
3:56 PM 91.9 °F 97.4 °F 70.0 °F 48% 30.01 in 10.0 mi SW 6.9 mph - N/A   Scattered Clouds
4:56 PM 91.9 °F 97.4 °F 70.0 °F 48% 30.00 in 10.0 mi SSW 5.8 mph - N/A   Mostly Cloudy
5:36 PM 82.9 °F 88.8 °F 73.0 °F 72% 30.03 in 10.0 mi WSW 25.3 mph 34.5 mph N/A Thunderstorm Thunderstorm
5:47 PM 78.1 °F - 75.0 °F 90% 30.03 in 1.5 mi SW 27.6 mph 34.5 mph 0.00 in Rain , Thunderstorm Thunderstorms and Rain
5:49 PM 77.0 °F - 73.4 °F 89% 30.03 in 1.0 mi SW 27.6 mph 34.5 mph N/A Rain , Thunderstorm Heavy Thunderstorms and Rain
5:56 PM 75.9 °F - 73.9 °F 94% 30.02 in 3.0 mi SSW 16.1 mph 34.5 mph 0.20 in Rain , Thunderstorm Thunderstorms and Rain
6:30 PM 77.0 °F - 73.9 °F 90% 30.02 in 10.0 mi Calm Calm - 0.05 in   Mostly Cloudy
6:56 PM 78.1 °F - 75.0 °F 90% 30.02 in 10.0 mi Calm Calm - 0.05 in   Mostly Cloudy
7:56 PM 78.1 °F - 75.9 °F 93% 30.02 in 10.0 mi Calm Calm - N/A   Mostly Cloudy
8:56 PM 77.0 °F - 75.0 °F 94% 30.03 in 10.0 mi SSE 4.6 mph - N/A   Mostly Cloudy
9:56 PM 75.9 °F - 75.9 °F 100% 30.05 in 9.0 mi SSE 5.8 mph - N/A   Mostly Cloudy
10:56 PM 75.9 °F - 75.0 °F 97% 30.05 in 7.0 mi South 3.5 mph - N/A   Mostly Cloudy
11:56 PM 75.0 °F - 75.0 °F 100% 30.04 in 6.0 mi South 5.8 mph - N/A   Mostly Cloudy